Regional Weather Roundup
Issued by NWS

Home | Current Version | Previous Version | Text Only | Print | Product List | Glossary Off
Versions: 1 2 3 4 5 6 7 8 9 10 11 12 13 14 15 16 17 18 19 20 21 22 23 24 25 26 27 28 29 30 31 32 33 34 35 36 37 38 39 40 41 42 43 44 45 46 47 48 49 50

000
ASUS43 KOAX 232002
RWRNE

WEATHER ROUNDUP FOR NEBRASKA
NATIONAL WEATHER SERVICE OMAHA NE
200 PM CST SUN NOV 23 2014

NOTES: SATELLITE DATA IS BEING USED TO AUGMENT CLOUD COVER ABOVE
       12000 FEET.
       "FAIR" INDICATES FEW OR NO CLOUDS BELOW 12,000 FEET WITH NO
       SIGNIFICANT WEATHER AND/OR OBSTRUCTIONS TO VISIBILITY.

  * THESE STATIONS DO NOT REPORT WEATHER SUCH AS RAIN...SNOW OR FOG.

NEZ001>004-019>022-054>056-232100-
NEBRASKA PANHANDLE

CITY           SKY/WX    TMP DP  RH WIND       PRES   REMARKS
SCOTTSBLUFF    SUNNY     45  12  26 NW31G44   29.76F
ALLIANCE       SUNNY     43  13  29 NW29G43   29.72F
CHADRON        SUNNY     41  22  46 NW30G44   29.77R
KIMBALL        SUNNY     40  13  32 N25G36    29.74S WCI  30
SIDNEY         SUNNY     44  13  28 N29G38    29.75S
$$

NEZ057>060-069>072-079>082-232100-
SOUTHWEST NEBRASKA

CITY           SKY/WX    TMP DP  RH WIND       PRES   REMARKS
NORTH PLATTE   PTSUNNY   49  17  28 N29G39    29.65F
IMPERIAL       PTSUNNY   48  11  22 N31G41    29.68F
LEXINGTON      CLOUDY    48  20  33 N28G37    29.61F
MCCOOK         CLOUDY    49  18  29 N29G37    29.63F
$$

NEZ005>010-023>029-035>040-094-232100-
NORTH CENTRAL NEBRASKA

CITY           SKY/WX    TMP DP  RH WIND       PRES   REMARKS
VALENTINE      MOSUNNY   47  21  35 NW26G41   29.64F
AINSWORTH      PTSUNNY   46  21  37 NW25G33   29.62F
BROKEN BOW     CLOUDY    48  22  35 N33G40    29.59F
ORD            CLOUDY    46  24  42 N29G36    29.57F
$$

NEZ041-046>049-061>064-073>077-083>087-232100-
SOUTH CENTRAL NEBRASKA

CITY           SKY/WX    TMP DP  RH WIND       PRES   REMARKS
AURORA         CLOUDY    42  35  74 N18G30    29.54F
HASTINGS       CLOUDY    43  32  65 N23G31    29.56S
KEARNEY *      CLOUDY    45  25  45 NW29G36   29.60S
YORK           CLOUDY    43  37  81 N16       29.53F
$$

NEZ011>018-030>034-042>045-232100-
NORTHEAST NEBRASKA

CITY           SKY/WX    TMP DP  RH WIND       PRES   REMARKS
NORFOLK        CLOUDY    44  34  67 NW23G29   29.52F
ALBION         CLOUDY    43  30  59 NW25G35   29.54F
BLAIR          CLOUDY    46  37  71 NW20G35   29.48R
COLUMBUS *     CLOUDY    43  32  65 N21       29.54S
FREMONT        LGT RAIN  43  37  78 N16G29    29.51F
TEKAMAH        CLOUDY    45  36  70 NW21      29.51R
$$

NEZ050>053-065>068-078-088>093-232100-
SOUTHEAST NEBRASKA

CITY           SKY/WX    TMP DP  RH WIND       PRES   REMARKS
LINCOLN        CLOUDY    44  35  70 N30G38    29.51F
OMAHA EPPLEY   CLOUDY    46  37  71 N25G33    29.48S
BEATRICE       CLOUDY    45  36  72 N26G35    29.49F
FALLS CITY     CLOUDY    48  42  80 N16G31    29.41R
NEBRASKA CITY  CLOUDY    45  39  80 N23G37    29.44R
$$

NEZ044-045-051>053-067-232100-
OMAHA AREA

CITY           SKY/WX    TMP DP  RH WIND       PRES   REMARKS
OMAHA EPPLEY   CLOUDY    46  37  71 N25G33    29.48S
BLAIR          CLOUDY    46  37  71 NW20G35   29.48R
FREMONT        LGT RAIN  43  37  78 N16G29    29.51F
MILLARD        CLOUDY    47  37  69 NW15G29   29.47F
OFFUTT AFB     PTSUNNY   46  37  71 NW21G29   29.45F
WAHOO          DRIZZLE   42  35  77 N23G32    29.51R
$$



USA.gov is the U.S. government's official web portal to all federal, state and local government web resources and services.